CWLEESTJE Weather Reports


time (UTC)temp
F
wind
direction
speed
knots
gust
knots
rain 1hr
in
rain 24hr
in
rain mn
in
humidity
%
barometer
mb
20260507104521 58 16 2.6 4.3 0.00 0.00 0.00 70
20260507103524 58 14 4.3 7.0 0.00 0.00 0.00 70
20260507102537 58 49 0.9 3.5 0.00 0.00 0.00 69
20260507101521 58 47 4.3 5.2 0.00 0.00 0.00 71
20260507100530 57 290 1.7 4.3 0.00 0.00 0.00 70
20260507095533 57 248 0.0 3.5 0.00 0.00 0.00 70
20260507094546 57 242 1.7 6.1 0.00 0.00 0.00 69
20260507093531 57 194 2.6 6.1 0.00 0.00 0.00 72
20260507092543 57 157 2.6 4.3 0.00 0.00 0.00 70
20260507091526 58 97 5.2 6.1 0.00 0.00 0.00 73
20260507090539 57 149 1.7 8.7 0.00 0.00 0.00 76
20260507085539 56 140 3.5 7.0 0.00 0.00 0.00 79
20260507084552 56 116 4.3 6.1 0.00 0.00 0.00 82
20260507083545 55 98 1.7 6.1 0.00 0.00 0.00 85
20260507082529 54 122 2.6 6.1 0.00 0.00 0.00 88
20260507081532 52 100 2.6 5.2 0.00 0.00 0.00 89
20260507080525 51 96 4.3 5.2 0.00 0.00 0.00 90
20260507075529 51 78 3.5 6.1 0.00 0.00 0.00 91
20260507074539 50 75 3.5 6.1 0.00 0.00 0.00 91
20260507073522 50 74 3.5 6.1 0.00 0.00 0.00 92
20260507072535 49 79 5.2 6.1 0.00 0.00 0.00 92
20260507071539 49 82 4.3 6.1 0.00 0.00 0.00 92
20260507070522 49 83 4.3 6.1 0.00 0.00 0.00 92
20260507065534 49 80 3.5 6.1 0.00 0.00 0.00 93
20260507064547 48 63 3.5 4.3 0.00 0.00 0.00 93
20260507063532 48 61 2.6 5.2 0.00 0.00 0.00 93
20260507062601 48 51 2.6 4.3 0.00 0.00 0.00 93
20260507061523 47 50 0.9 3.5 0.00 0.00 0.00 93
20260507060536 47 50 0.9 2.6 0.00 0.00 0.00 93
20260507055540 47 50 2.6 4.3 0.00 0.00 0.00 93
20260507054553 47 50 1.7 3.5 0.00 0.00 0.00 93
20260507053536 46 50 0.9 1.7 0.00 0.00 0.00 93
20260507052529 46 50 1.7 3.5 0.00 0.00 0.00 93
20260507051528 46 50 0.9 1.7 0.00 0.00 0.00 93
20260507050541 46 50 0.0 0.0 0.00 0.00 0.00 93
20260507045525 46 50 0.0 0.0 0.00 0.00 0.00 93
20260507044538 46 50 0.0 0.0 0.00 0.00 0.00 93
20260507043521 46 50 0.0 1.7 0.00 0.00 0.00 93
20260507042527 46 50 0.9 3.5 0.00 0.00 0.00 92
20260507041539 46 49 3.5 4.3 0.00 0.00 0.00 92
20260507040522 46 48 2.6 6.1 0.00 0.00 0.00 92
20260507035532 46 13 1.7 4.3 0.00 0.00 0.00 93
20260507034535 46 313 0.0 0.0 0.00 0.00 0.00 93
20260507033528 45 312 0.0 0.0 0.00 0.00 0.00 92
20260507032532 45 312 0.0 0.0 0.00 0.00 0.00 93
20260507031525 45 313 0.0 0.0 0.00 0.00 0.00 92
20260507030530 45 312 0.0 0.0 0.00 0.00 0.00 92
20260507025543 44 312 0.0 0.9 0.00 0.00 0.00 92
20260507024526 44 312 0.0 0.9 0.00 0.00 0.00 92
20260507023556 44 312 0.0 0.0 0.00 0.00 0.00 92
20260507022549 44 312 0.0 0.9 0.00 0.00 0.00 92
20260507021532 43 312 0.9 1.7 0.00 0.00 0.00 92
20260507020537 43 312 1.7 1.7 0.00 0.00 0.00 91
20260507015548 43 312 1.7 3.5 0.00 0.00 0.00 91
20260507014540 43 312 1.7 4.3 0.00 0.00 0.00 91
20260507013523 43 312 1.7 4.3 0.00 0.00 0.00 91
20260507012523 44 339 0.9 4.3 0.00 0.00 0.00 91
20260507011536 43 342 0.0 1.7 0.00 0.00 0.00 91
20260507010549 43 342 1.7 1.7 0.00 0.00 0.00 91
20260507005532 43 342 0.9 1.7 0.00 0.00 0.00 91
20260507004536 43 342 1.7 1.7 0.00 0.00 0.00 91
20260507003528 43 342 1.7 1.7 0.00 0.00 0.00 90
20260507002532 43 342 1.7 1.7 0.00 0.00 0.00 90
20260507001545 44 342 0.0 0.0 0.00 0.00 0.00 90
20260507000525 44 342 0.9 1.7 0.00 0.00 0.00 90
20260506235532 44 342 1.7 1.7 0.00 0.00 0.00 90
20260506234536 45 342 0.9 1.7 0.00 0.00 0.00 90
20260506233531 45 342 0.9 1.7 0.00 0.00 0.00 90
20260506232534 46 342 0.0 1.7 0.00 0.00 0.00 90
20260506231547 46 342 0.0 3.5 0.00 0.00 0.00 90
20260506230531 47 342 1.7 2.6 0.00 0.00 0.00 90
20260506225544 47 342 1.7 3.5 0.00 0.00 0.00 89
20260506224544 48 342 0.0 1.7 0.00 0.00 0.00 89
20260506223535 48 342 1.7 2.6 0.00 0.00 0.00 89
20260506222610 49 342 0.9 4.3 0.00 0.00 0.00 89
20260506221532 49 342 0.9 3.5 0.00 0.00 0.00 89
20260506220535 49 343 1.7 4.3 0.00 0.00 0.00 89
20260506215528 49 344 1.7 5.2 0.00 0.00 0.00 89
20260506214533 49 344 2.6 4.3 0.00 0.00 0.00 89
20260506213542 49 345 0.0 4.3 0.00 0.00 0.00 89
20260506212527 49 327 2.6 5.2 0.00 0.00 0.00 89
20260506211540 49 321 4.3 5.2 0.00 0.00 0.00 88
20260506210543 50 323 0.0 5.2 0.00 0.00 0.00 88
20260506205535 50 323 2.6 5.2 0.00 0.00 0.00 87
20260506204548 50 325 2.6 6.1 0.00 0.00 0.00 87
20260506203532 50 333 2.6 6.1 0.00 0.00 0.00 87
20260506202532 51 342 4.3 6.1 0.00 0.00 0.00 87
20260506201526 51 346 3.5 5.2 0.00 0.00 0.00 86
20260506200559 51 327 4.3 7.0 0.00 0.00 0.00 86
20260506195521 51 317 2.6 6.1 0.00 0.00 0.00 85
20260506194525 52 340 2.6 7.0 0.00 0.00 0.00 85
20260506193600 52 327 3.5 6.1 0.00 0.00 0.00 84
20260506192531 52 332 4.3 7.0 0.00 0.00 0.00 84
20260506191531 53 342 2.6 7.8 0.00 0.00 0.00 83
20260506190545 53 5 4.3 8.7 0.00 0.00 0.00 82
20260506185530 54 13 4.3 11.3 0.00 0.00 0.00 81
20260506184544 54 334 8.7 11.3 0.00 0.00 0.00 80
20260506183527 54 40 8.7 13.0 0.00 0.00 0.00 79
20260506182541 55 9 4.3 11.3 0.00 0.00 0.00 79
20260506181523 55 5 5.2 12.2 0.00 0.00 0.00 78
20260506180526 55 355 8.7 13.0 0.00 0.00 0.00 78
20260506175535 55 360 7.8 13.0 0.00 0.00 0.00 79
20260506174550 55 9 7.0 12.2 0.00 0.00 0.00 79
20260506173533 55 10 6.1 13.0 0.00 0.00 0.00 78
20260506172537 55 339 7.8 12.2 0.00 0.00 0.00 78
20260506171550 55 351 7.8 13.0 0.00 0.00 0.00 77
20260506170542 55 5 8.7 15.6 0.00 0.00 0.00 77
20260506165524 55 13 7.0 15.6 0.00 0.00 0.00 77
20260506164533 55 360 7.0 13.0 0.00 0.00 0.00 76
20260506163536 56 355 9.6 16.5 0.00 0.00 0.00 75
20260506162529 56 355 11.3 15.6 0.00 0.00 0.00 74
20260506161533 57 350 9.6 17.4 0.00 0.00 0.00 72
20260506160546 58 355 9.6 13.9 0.00 0.00 0.00 73
20260506155528 58 355 8.7 18.2 0.00 0.00 0.00 73
20260506154541 58 350 7.8 16.5 0.00 0.00 0.00 74
20260506153526 57 5 11.3 15.6 0.00 0.00 0.00 75
20260506152536 57 5 10.4 13.9 0.00 0.00 0.00 74
20260506151539 58 18 10.4 15.6 0.00 0.00 0.00 75
20260506150533 58 360 10.4 16.5 0.00 0.00 0.00 75
20260506145606 58 15 10.4 17.4 0.00 0.00 0.00 73
20260506144529 58 355 10.4 16.5 0.00 0.00 0.00 74
20260506143544 58 15 7.8 13.9 0.00 0.00 0.00 75
20260506142526 57 5 7.8 15.6 0.00 0.00 0.00 75
20260506141556 57 9 8.7 15.6 0.00 0.00 0.00 74
20260506140608 57 17 9.6 15.6 0.00 0.00 0.00 73
20260506135550 58 5 10.4 19.1 0.00 0.00 0.00 73
20260506134543 58 355 8.7 15.6 0.00 0.00 0.00 73
20260506133527 58 30 7.8 17.4 0.00 0.00 0.00 73
20260506132538 58 355 12.2 16.5 0.00 0.00 0.00 73
20260506131536 58 5 10.4 18.2 0.00 0.00 0.00 73
20260506130546 57 34 10.4 16.5 0.00 0.00 0.00 73
20260506125524 57 5 8.7 13.9 0.00 0.00 0.00 75
20260506124538 57 16 10.4 17.4 0.00 0.00 0.00 76
20260506123611 57 355 11.3 16.5 0.00 0.00 0.00 77
20260506122533 56 325 6.1 16.5 0.00 0.00 0.00 78
20260506121549 56 351 9.6 15.6 0.00 0.00 0.00 79
20260506120531 56 9 9.6 15.6 0.00 0.00 0.00 79
20260506115600 56 360 7.8 13.0 0.00 0.00 0.00 79
20260506114542 55 355 9.6 16.5 0.00 0.00 0.00 79
20260506113535 55 317 9.6 13.9 0.00 0.00 0.00 79
20260506112550 56 17 11.3 17.4 0.00 0.00 0.00 80
20260506111552 55 333 11.3 17.4 0.00 0.00 0.00 80
20260506110545 55 13 9.6 15.6 0.00 0.00 0.00 79
20260506105524 55 18 8.7 15.6 0.00 0.00 0.00 81